[[{"header":{"parameterUnit":"m.s-1","parameterCategory":2,"la1":30.2991,"la2":30.254,"lo1":-89.0895,"lo2":-89.0444,"dy":0.0017,"dx":0.0017,"nx":28,"ny":28,"refTime":"2024-02-18T03:00:00:Z","depth":"0","parameterNumber":2,"parameterNumberName":"U-component_of_CURRENTS"},"data":[0,0,0,0,0,0,0,0,0,0,0,0,0,0,0,0,0,0,0,0,0,0,0,0,0,0,0,0,0,0,0,0,0,0,0,0,0,0,0,0,0,0,0,0,0,0,0,0,0,0,0,0,0,0,0,0,0,0,0.1508,0.1508,0,0.1505,0.1505,0.1504,0.1495,0.1495,0.1494,0.1494,0.1466,0.1465,0.1465,0,0,0,0,0,0,0,0,0,0,0,0,0,0.1504,0.1504,0.1508,0.1508,0.1508,0.1505,0.1505,0.1504,0.1495,0.1495,0.1494,0.1494,0.1466,0.1465,0.1464,0,0,0,0,0,0,0,0,0,0,0,0,0,0.1502,0.1504,0.1508,0.1504,0.1504,0.1505,0.1504,0.1504,0.1495,0.1495,0.1494,0.1494,0.1466,0.1465,0.1464,0.1459,0,0,0.1461,0.1461,0,0,0,0,0,0,0,0,0.1502,0.1502,0.1505,0.1504,0.1504,0.1502,0.1493,0.1489,0.1495,0.1496,0.1494,0.1494,0.1477,0.1475,0.1472,0.1458,0.1457,0.1461,0.146,0.146,0.146,0,0,0,0,0,0,0,0.1502,0.1502,0.1505,0.1505,0.1505,0.1502,0.1502,0.1492,0.1485,0.1496,0.1496,0.1498,0.1476,0.1473,0.1471,0.1456,0.1461,0.146,0.1459,0.1459,0.1465,0.1466,0,0,0,0,0,0,0.1507,0.1502,0.1505,0.1505,0.1505,0.1503,0.1502,0.1501,0.1486,0.1484,0.1498,0.1498,0.1475,0.1473,0.147,0.1491,0.146,0.1459,0.1458,0.1464,0.1465,0.1466,0,0,0,0,0,0,0.1506,0.1507,0.1505,0.1505,0.1505,0.1503,0.1502,0.1501,0.1502,0.1488,0.1486,0.1501,0.1475,0.1472,0.1472,0.1489,0.1458,0.1457,0.1463,0.1464,0.1465,0.1515,0,0,0,0,0,0,0.1506,0.1506,0.1506,0.1505,0.1505,0.1514,0.1502,0.1501,0.1505,0.1504,0.149,0.1487,0.1475,0.1474,0.1471,0.1487,0.1457,0.1462,0.1464,0.1465,0.1512,0.1518,0.1522,0,0,0,0,0,0.1506,0.1509,0.1506,0.1507,0.1505,0.1514,0.1514,0.1511,0.1505,0.1511,0.1503,0.1487,0.1481,0.1474,0.147,0.1486,0.1461,0.1463,0.1465,0.151,0.1517,0.1522,0,0,0,0,0,0,0.1505,0.1508,0.1505,0.1508,0.1515,0.1514,0.1518,0.1515,0.1513,0.1511,0.1495,0.1492,0.15,0.1485,0.1477,0.1493,0.147,0.1471,0.1506,0.1512,0.1517,0.1522,0.1456,0,0,0,0,0,0.1506,0.1509,0.1513,0.1516,0.1521,0.152,0.1522,0.1522,0.1521,0.152,0.1511,0.1503,0.1504,0.1502,0.1497,0.1502,0.1507,0.1511,0.1516,0.152,0.1523,0.1548,0.1555,0.1472,0.1472,0.1472,0,0,0.1505,0.1508,0.1509,0.1517,0.1519,0.1532,0.1521,0.153,0.154,0.1517,0.1524,0.152,0.151,0.152,0.1522,0.151,0.155,0.1522,0.1526,0.1527,0.155,0.1559,0.1566,0.1473,0.1473,0.1473,0,0,0.1512,0.1511,0.1519,0.1528,0.154,0.1543,0.1548,0.1553,0.1554,0.1561,0.1552,0.156,0.155,0.1555,0.1554,0.1583,0.1577,0.158,0.1608,0.1632,0.164,0.1646,0.1678,0.1687,0.1581,0.1581,0.1581,0,0.1511,0.1522,0.1524,0.1539,0.1549,0.1551,0.1567,0.1571,0.1574,0.1581,0.1569,0.1581,0.157,0.1594,0.1603,0.1595,0.1609,0.1586,0.164,0.1646,0.1652,0.1683,0.1692,0.1584,0.1583,0.1583,0.1583,0,0.1528,0.1539,0.1548,0.1567,0.1578,0.1593,0.1603,0.1615,0.1615,0.1619,0.164,0.1632,0.1642,0.1641,0.1628,0.1666,0.1664,0.1646,0.1626,0.1663,0.1693,0.1702,0.1587,0.1587,0.1586,0.1585,0,0,0.152,0.1553,0.1556,0.1571,0.1594,0.1607,0.163,0.1653,0.1677,0.1676,0.1705,0.1706,0.1706,0.1706,0.1698,0.1713,0.1767,0.1697,0.1697,0.1731,0.1832,0.1865,0.1878,0.1759,0.176,0.1761,0.1843,0,0.1533,0.1567,0.158,0.1613,0.163,0.1646,0.1669,0.1691,0.1708,0.1736,0.1736,0.1758,0.173,0.1743,0.1756,0.1764,0.1789,0.1747,0.1788,0.1789,0.1817,0.1888,0.1918,0.1997,0.1851,0.1853,0.1854,0,0.1544,0.1568,0.1602,0.164,0.1649,0.167,0.1718,0.174,0.1779,0.1793,0.1819,0.1821,0.185,0.1816,0.1859,0.1835,0.1839,0.1841,0.1844,0.1862,0.1838,0.1933,0.2017,0.1983,0.1867,0.1866,0.1865,0,0.1539,0.158,0.1609,0.1622,0.1667,0.1687,0.1713,0.1757,0.1786,0.1837,0.1866,0.1894,0.1919,0.1927,0.1933,0.1901,0.1982,0.1938,0.1976,0.1978,0.2005,0.2008,0.2064,0.1974,0.1973,0.1973,0.1973,0,0.1544,0.1565,0.161,0.1626,0.1662,0.1693,0.174,0.1772,0.1828,0.1872,0.1895,0.1941,0.1947,0.1987,0.1975,0.2022,0.2022,0.2005,0.201,0.2025,0.2028,0.1998,0.1935,0.1976,0.1976,0.1975,0.1974,0,0.1526,0.1558,0.1591,0.1643,0.1659,0.1684,0.1745,0.1783,0.1841,0.1903,0.1922,0.1993,0.206,0.2074,0.2109,0.2092,0.2095,0.2128,0.2153,0.216,0.2148,0.2085,0.2129,0.2053,0.2187,0.2188,0.219,0,0.1517,0.1535,0.1592,0.1615,0.1638,0.1681,0.1713,0.1776,0.1823,0.1935,0.1965,0.2061,0.2129,0.2215,0.2234,0.2264,0.2167,0.2279,0.2217,0.218,0.2114,0.2065,0.1991,0.2277,0.2279,0.2281,0.2282,0,0.1497,0.1521,0.1551,0.1599,0.1635,0.1673,0.1727,0.1762,0.1847,0.192,0.2028,0.21,0.2226,0.2299,0.2353,0.2355,0.2229,0.231,0.2268,0.2197,0.2151,0.207,0.2188,0.2295,0.2294,0.2293,0.2292,0.2292,0.1474,0.149,0.1536,0.1575,0.1616,0.1654,0.1665,0.1743,0.1817,0.1912,0.2028,0.2139,0.2296,0.2399,0.24,0.2425,0.2327,0.2375,0.2308,0.2268,0.218,0.2335,0.2444,0.2443,0.2443,0.2443,0.2442,0,0.1436,0.1467,0.1508,0.1548,0.157,0.1609,0.1663,0.167,0.1736,0.1878,0.1983,0.2196,0.2318,0.2409,0.2479,0.2417,0.2354,0.2371,0.2298,0.2219,0.2381,0.237,0.2472,0.2472,0.2472,0.2472,0.2472,0.2472,0.1416,0.1438,0.1464,0.1486,0.1514,0.1512,0.1525,0.1562,0.1642,0.1784,0.1924,0.2049,0.2239,0.245,0.2452,0.2413,0.2216,0.2259,0.213,0.2244,0.2238,0.2233,0.2211,0.2279,0.2279,0.1986,0.1983,0.1981]},{"header":{"parameterUnit":"m.s-1","parameterCategory":2,"la1":30.2991,"la2":30.254,"lo1":-89.0895,"lo2":-89.0444,"dy":0.0017,"dx":0.0017,"nx":28,"ny":28,"refTime":"2024-02-18T03:00:00:Z","depth":"0","parameterNumber":3,"parameterNumberName":"V-component_of_CURRENTS"},"data":[0,0,0,0,0,0,0,0,0,0,0,0,0,0,0,0,0,0,0,0,0,0,0,0,0,0,0,0,0,0,0,0,0,0,0,0,0,0,0,0,0,0,0,0,0,0,0,0,0,0,0,0,0,0,0,0,0,0,-0.0707,-0.0707,0,-0.0716,-0.0716,-0.0716,-0.0732,-0.0732,-0.0733,-0.0733,-0.072,-0.0719,-0.0718,0,0,0,0,0,0,0,0,0,0,0,0,0,-0.0702,-0.0702,-0.0707,-0.0707,-0.0708,-0.0716,-0.0716,-0.0716,-0.0732,-0.0732,-0.0733,-0.0733,-0.072,-0.0719,-0.0718,0,0,0,0,0,0,0,0,0,0,0,0,0,-0.0706,-0.0702,-0.0707,-0.0717,-0.0718,-0.0716,-0.0716,-0.0717,-0.0732,-0.0732,-0.0733,-0.0733,-0.072,-0.0719,-0.0718,-0.07,0,0,-0.0715,-0.0714,0,0,0,0,0,0,0,0,-0.0706,-0.0706,-0.0715,-0.0716,-0.0718,-0.0724,-0.071,-0.071,-0.0732,-0.0726,-0.0733,-0.0734,-0.0719,-0.0718,-0.0718,-0.07,-0.0699,-0.0715,-0.0714,-0.0714,-0.0713,0,0,0,0,0,0,0,-0.0706,-0.0706,-0.071,-0.0716,-0.0717,-0.0721,-0.0722,-0.071,-0.0718,-0.0726,-0.0728,-0.073,-0.072,-0.0719,-0.0718,-0.0699,-0.0715,-0.0714,-0.0713,-0.0713,-0.0677,-0.0677,0,0,0,0,0,0,-0.0706,-0.0705,-0.071,-0.071,-0.0714,-0.072,-0.0722,-0.0721,-0.0719,-0.0719,-0.0729,-0.0731,-0.072,-0.0719,-0.0717,-0.0695,-0.0714,-0.0713,-0.0712,-0.0678,-0.0677,-0.0677,0,0,0,0,0,0,-0.0705,-0.0706,-0.0709,-0.0709,-0.071,-0.072,-0.0719,-0.0721,-0.072,-0.0722,-0.0722,-0.0727,-0.0721,-0.0719,-0.0705,-0.0694,-0.0712,-0.0711,-0.0678,-0.0677,-0.0677,-0.065,0,0,0,0,0,0,-0.0705,-0.0705,-0.0701,-0.0709,-0.071,-0.0704,-0.0719,-0.0721,-0.0721,-0.0723,-0.072,-0.0719,-0.0721,-0.0706,-0.0704,-0.0693,-0.071,-0.0678,-0.0678,-0.0677,-0.0651,-0.0649,-0.0647,0,0,0,0,0,-0.0705,-0.0694,-0.0701,-0.0701,-0.0705,-0.0703,-0.0704,-0.0713,-0.0721,-0.0715,-0.0715,-0.0719,-0.0701,-0.0705,-0.0702,-0.0691,-0.0679,-0.0678,-0.0677,-0.0653,-0.0649,-0.0647,0,0,0,0,0,0,-0.0685,-0.0695,-0.0702,-0.0694,-0.0698,-0.0706,-0.07,-0.0709,-0.0705,-0.0705,-0.071,-0.0709,-0.0696,-0.0696,-0.07,-0.0681,-0.0692,-0.0691,-0.0675,-0.0672,-0.0669,-0.0664,-0.071,0,0,0,0,0,-0.068,-0.0676,-0.0687,-0.0678,-0.068,-0.069,-0.069,-0.0697,-0.0697,-0.0697,-0.0696,-0.0694,-0.069,-0.0683,-0.068,-0.0661,-0.0675,-0.0655,-0.0652,-0.065,-0.0645,-0.0658,-0.0656,-0.0675,-0.0675,-0.0675,0,0,-0.067,-0.0674,-0.0672,-0.0674,-0.0677,-0.0671,-0.0691,-0.0687,-0.0679,-0.0694,-0.0678,-0.0684,-0.0684,-0.067,-0.0664,-0.0667,-0.0654,-0.0649,-0.0647,-0.0643,-0.0657,-0.0655,-0.0654,-0.0674,-0.0674,-0.0674,0,0,-0.0645,-0.0651,-0.064,-0.0642,-0.0646,-0.0652,-0.0651,-0.0658,-0.0659,-0.0647,-0.0659,-0.0658,-0.0646,-0.0647,-0.0645,-0.0625,-0.0643,-0.0626,-0.0604,-0.0616,-0.0615,-0.0614,-0.0636,-0.0637,-0.0622,-0.0621,-0.0621,0,-0.0632,-0.0621,-0.0635,-0.0625,-0.0622,-0.0642,-0.0628,-0.063,-0.0631,-0.0626,-0.0638,-0.0632,-0.0635,-0.062,-0.0617,-0.0619,-0.0634,-0.0614,-0.0613,-0.0612,-0.0612,-0.0635,-0.0636,-0.062,-0.062,-0.062,-0.0621,0,-0.0601,-0.0593,-0.0584,-0.058,-0.0578,-0.0568,-0.0577,-0.0573,-0.058,-0.0585,-0.0577,-0.0587,-0.0584,-0.0588,-0.0595,-0.0589,-0.0605,-0.0612,-0.062,-0.0608,-0.0633,-0.0635,-0.0618,-0.0619,-0.0619,-0.0619,0,0,-0.0567,-0.0564,-0.056,-0.0549,-0.0553,-0.0545,-0.0534,-0.0527,-0.0514,-0.0526,-0.0513,-0.0519,-0.0535,-0.0535,-0.0549,-0.0561,-0.0575,-0.0582,-0.0583,-0.0603,-0.0612,-0.0655,-0.0662,-0.0584,-0.0584,-0.0584,-0.0634,0,-0.0537,-0.051,-0.0517,-0.0486,-0.0472,-0.0486,-0.047,-0.0468,-0.0472,-0.0465,-0.0488,-0.0482,-0.0511,-0.0511,-0.0527,-0.056,-0.0578,-0.0562,-0.0621,-0.0623,-0.0662,-0.0664,-0.0714,-0.0765,-0.0636,-0.0637,-0.0637,0,-0.0501,-0.0488,-0.0456,-0.0436,-0.043,-0.0415,-0.0395,-0.0385,-0.0388,-0.0392,-0.0402,-0.0425,-0.0443,-0.0472,-0.0527,-0.0515,-0.056,-0.0593,-0.0596,-0.0645,-0.0669,-0.0755,-0.0774,-0.0947,-0.0641,-0.064,-0.064,0,-0.0463,-0.0441,-0.0412,-0.0406,-0.0391,-0.0374,-0.0365,-0.0359,-0.0341,-0.0349,-0.0341,-0.0375,-0.0387,-0.0445,-0.052,-0.0522,-0.0589,-0.0599,-0.0682,-0.0686,-0.0744,-0.0753,-0.0935,-0.0641,-0.064,-0.064,-0.064,0,-0.0423,-0.0397,-0.0391,-0.0373,-0.033,-0.0335,-0.0294,-0.029,-0.0281,-0.0254,-0.0301,-0.0293,-0.0381,-0.0433,-0.0506,-0.0604,-0.058,-0.0681,-0.0701,-0.0737,-0.0745,-0.091,-0.0976,-0.0642,-0.0642,-0.0641,-0.0641,0,-0.0377,-0.0378,-0.034,-0.032,-0.031,-0.0278,-0.0247,-0.0218,-0.0219,-0.0188,-0.019,-0.0232,-0.0305,-0.0404,-0.0502,-0.0584,-0.0782,-0.0714,-0.0758,-0.0782,-0.1023,-0.1084,-0.1265,-0.1363,-0.0815,-0.0817,-0.0818,0,-0.0348,-0.0327,-0.0297,-0.0272,-0.0259,-0.0221,-0.0191,-0.0182,-0.0153,-0.0147,-0.0126,-0.0192,-0.0231,-0.0404,-0.0568,-0.0719,-0.0845,-0.0863,-0.0876,-0.1053,-0.1135,-0.1186,-0.126,-0.0946,-0.0948,-0.095,-0.0951,0,-0.029,-0.0283,-0.0254,-0.021,-0.0175,-0.0136,-0.0096,-0.0065,-0.0053,-0.0037,-0.0029,-0.0064,-0.0248,-0.0432,-0.0653,-0.0768,-0.1016,-0.0903,-0.1075,-0.1247,-0.1325,-0.1423,-0.0903,-0.0966,-0.0965,-0.0964,-0.0963,-0.0962,-0.024,-0.0212,-0.0182,-0.0137,-0.01,-0.0052,-0.0017,0.0017,0.006,0.0075,0.0041,-0.0028,-0.0309,-0.0625,-0.0799,-0.1185,-0.1141,-0.1294,-0.1351,-0.1386,-0.1497,-0.1016,-0.1107,-0.1106,-0.1106,-0.1105,-0.1105,0,-0.0176,-0.0155,-0.0112,-0.0063,-0.0019,-0.0013,0.0046,0.0069,0.0115,0.0098,0.0083,-0.0167,-0.0494,-0.0836,-0.131,-0.158,-0.1684,-0.1733,-0.1832,-0.1882,-0.1454,-0.1479,-0.1667,-0.1667,-0.1667,-0.1667,-0.1667,-0.1666,-0.0141,-0.009,-0.0077,-0.0001,0.0029,0.0076,0.0107,0.0133,0.0124,0.004,-0.0078,-0.0188,-0.0601,-0.1305,-0.191,-0.2027,-0.2239,-0.2262,-0.2358,-0.2081,-0.2045,-0.2011,-0.2053,-0.236,-0.236,-0.2791,-0.2795,-0.2798]}],[{"header":{"parameterUnit":"m.s-1","parameterCategory":2,"la1":30.2991,"la2":30.254,"lo1":-89.0895,"lo2":-89.0444,"dy":0.0017,"dx":0.0017,"nx":28,"ny":28,"refTime":"2024-02-18T03:00:00:Z","depth":"2","parameterNumber":2,"parameterNumberName":"U-component_of_CURRENTS"},"data":[0,0,0,0,0,0,0,0,0,0,0,0,0,0,0,0,0,0,0,0,0,0,0,0,0,0,0,0,0,0,0,0,0,0,0,0,0,0,0,0,0,0,0,0,0,0,0,0,0,0,0,0,0,0,0,0,0,0,0.1513,0.1513,0,0.151,0.151,0.151,0.15,0.15,0.15,0.15,0.1472,0.1471,0.1471,0,0,0,0,0,0,0,0,0,0,0,0,0,0.1509,0.1509,0.1513,0.1513,0.1513,0.151,0.151,0.151,0.15,0.15,0.15,0.15,0.1472,0.1471,0.1471,0,0,0,0,0,0,0,0,0,0,0,0,0,0.1507,0.1509,0.1513,0.1509,0.1509,0.151,0.151,0.151,0.15,0.15,0.15,0.15,0.1473,0.1472,0.1471,0.1466,0,0,0.1467,0.1467,0,0,0,0,0,0,0,0,0.1507,0.1507,0.151,0.151,0.1509,0.1507,0.1498,0.1494,0.15,0.1502,0.15,0.15,0.1483,0.1481,0.1478,0.1464,0.1463,0.1467,0.1467,0.1466,0.1466,0,0,0,0,0,0,0,0.1507,0.1507,0.151,0.151,0.151,0.1508,0.1507,0.1498,0.1491,0.1502,0.1501,0.1504,0.1482,0.1479,0.1477,0.1463,0.1467,0.1466,0.1466,0.1465,0.1472,0.1472,0,0,0,0,0,0,0.1512,0.1507,0.151,0.151,0.151,0.1508,0.1507,0.1506,0.1491,0.149,0.1504,0.1504,0.1481,0.1479,0.1476,0.1498,0.1466,0.1465,0.1465,0.1471,0.1472,0.1473,0,0,0,0,0,0,0.1511,0.1512,0.151,0.151,0.151,0.1508,0.1507,0.1506,0.1508,0.1494,0.1491,0.1507,0.1481,0.1478,0.1478,0.1495,0.1465,0.1464,0.147,0.1471,0.1472,0.1522,0,0,0,0,0,0,0.1511,0.1512,0.1512,0.1511,0.151,0.1519,0.1508,0.1506,0.151,0.151,0.1496,0.1493,0.1481,0.148,0.1477,0.1493,0.1463,0.1469,0.1471,0.1472,0.1519,0.1524,0.1529,0,0,0,0,0,0.1511,0.1514,0.1511,0.1512,0.1511,0.152,0.152,0.1517,0.1511,0.1516,0.1508,0.1493,0.1488,0.148,0.1476,0.1492,0.1468,0.147,0.1472,0.1517,0.1523,0.1529,0,0,0,0,0,0,0.151,0.1513,0.1511,0.1513,0.152,0.1519,0.1524,0.1521,0.1518,0.1517,0.15,0.1498,0.1506,0.1492,0.1483,0.1499,0.1477,0.1478,0.1512,0.1518,0.1523,0.1529,0.1462,0,0,0,0,0,0.1511,0.1515,0.1518,0.1521,0.1526,0.1525,0.1528,0.1528,0.1527,0.1525,0.1516,0.1509,0.151,0.1508,0.1504,0.1508,0.1513,0.1517,0.1523,0.1527,0.153,0.1554,0.1562,0.1479,0.1479,0.1479,0,0,0.151,0.1514,0.1514,0.1522,0.1525,0.1538,0.1526,0.1536,0.1545,0.1522,0.153,0.1526,0.1516,0.1526,0.1529,0.1516,0.1556,0.1529,0.1533,0.1533,0.1557,0.1565,0.1573,0.148,0.148,0.1479,0,0,0.1518,0.1516,0.1525,0.1534,0.1545,0.1549,0.1554,0.1558,0.1559,0.1567,0.1558,0.1566,0.1557,0.1562,0.156,0.1589,0.1583,0.1587,0.1615,0.1639,0.1646,0.1652,0.1684,0.1693,0.1588,0.1588,0.1588,0,0.1516,0.1528,0.1529,0.1545,0.1555,0.1556,0.1572,0.1576,0.158,0.1587,0.1575,0.1587,0.1576,0.16,0.161,0.1601,0.1615,0.1593,0.1646,0.1652,0.1658,0.1689,0.1698,0.159,0.159,0.159,0.159,0,0.1534,0.1544,0.1553,0.1572,0.1584,0.1598,0.1609,0.162,0.1621,0.1625,0.1646,0.1639,0.1648,0.1648,0.1634,0.1672,0.1671,0.1652,0.1632,0.167,0.17,0.1708,0.1594,0.1593,0.1592,0.1592,0,0,0.1525,0.1558,0.1562,0.1576,0.16,0.1612,0.1636,0.1659,0.1683,0.1682,0.171,0.1712,0.1713,0.1712,0.1705,0.172,0.1773,0.1703,0.1703,0.1738,0.1838,0.187,0.1882,0.1765,0.1766,0.1767,0.1849,0,0.1538,0.1572,0.1585,0.1618,0.1635,0.1651,0.1675,0.1696,0.1714,0.1742,0.1742,0.1764,0.1736,0.1749,0.1762,0.1771,0.1795,0.1753,0.1794,0.1795,0.1822,0.1893,0.1668,0.1725,0.1857,0.1858,0.1859,0,0.1549,0.1573,0.1607,0.1645,0.1654,0.1675,0.1723,0.1745,0.1785,0.1799,0.1824,0.1826,0.1855,0.1822,0.1865,0.184,0.1845,0.1847,0.185,0.1867,0.1844,0.1706,0.1735,0.1873,0.1872,0.1871,0.187,0,0.1544,0.1585,0.1614,0.1627,0.1672,0.1693,0.1718,0.1762,0.1791,0.1842,0.1871,0.19,0.1924,0.1932,0.1939,0.1907,0.1987,0.1943,0.198,0.1983,0.1793,0.1777,0.1979,0.1979,0.1979,0.1979,0.1978,0,0.1549,0.157,0.1615,0.1631,0.1667,0.1698,0.1745,0.1777,0.1833,0.1877,0.19,0.1946,0.1952,0.1993,0.198,0.2026,0.2027,0.2009,0.2015,0.1807,0.1792,0.191,0.1901,0.1982,0.1981,0.198,0.198,0,0.1531,0.1563,0.1596,0.1648,0.1664,0.1689,0.175,0.1788,0.1846,0.1908,0.1927,0.1998,0.2064,0.2079,0.2113,0.2097,0.2122,0.2132,0.1902,0.1881,0.2087,0.2079,0.2186,0.2188,0.219,0.2191,0.2192,0,0.1522,0.1539,0.1597,0.162,0.1643,0.1686,0.1718,0.1781,0.1827,0.1939,0.197,0.2065,0.212,0.2206,0.2154,0.2163,0.2203,0.2016,0.1919,0.2119,0.2113,0.2102,0.2093,0.168,0.1677,0.1674,0.1672,0,0.1501,0.1526,0.1556,0.1604,0.164,0.1678,0.1732,0.1766,0.1851,0.1912,0.202,0.2079,0.2139,0.2059,0.2084,0.2053,0.1996,0.1972,0.2227,0.1686,0.1655,0.1645,0.1649,0.165,0.1652,0.1653,0.1655,0.1656,0.1479,0.1495,0.1541,0.1579,0.162,0.1658,0.1669,0.171,0.1767,0.1798,0.1944,0.1938,0.1951,0.1867,0.1828,0.1786,0.1919,0.1832,0.1832,0.1838,0.1789,0.1765,0.1771,0.1773,0.1776,0.1778,0.178,0,0.1433,0.1471,0.1513,0.1553,0.1562,0.1614,0.1667,0.1635,0.1638,0.1676,0.1712,0.1585,0.1529,0.1564,0.1437,0.1472,0.1372,0.1454,0.1282,0.1307,0.1328,0.1246,0.1088,0.1086,0.1084,0.1083,0,0,0.1411,0.143,0.1455,0.1467,0.1503,0.1479,0.1492,0.145,0.1442,0.1387,0.1348,0.139,0.1495,0.1242,0.123,0.1147,0.1212,0.1103,0.1653,0.1473,0.1492,0.1543,0.1448,0,0,0,0,0]},{"header":{"parameterUnit":"m.s-1","parameterCategory":2,"la1":30.2991,"la2":30.254,"lo1":-89.0895,"lo2":-89.0444,"dy":0.0017,"dx":0.0017,"nx":28,"ny":28,"refTime":"2024-02-18T03:00:00:Z","depth":"2","parameterNumber":3,"parameterNumberName":"V-component_of_CURRENTS"},"data":[0,0,0,0,0,0,0,0,0,0,0,0,0,0,0,0,0,0,0,0,0,0,0,0,0,0,0,0,0,0,0,0,0,0,0,0,0,0,0,0,0,0,0,0,0,0,0,0,0,0,0,0,0,0,0,0,0,0,-0.0653,-0.0653,0,-0.0662,-0.0662,-0.0662,-0.0678,-0.0679,-0.0679,-0.0679,-0.0666,-0.0666,-0.0665,0,0,0,0,0,0,0,0,0,0,0,0,0,-0.0648,-0.0648,-0.0653,-0.0653,-0.0653,-0.0662,-0.0662,-0.0662,-0.0678,-0.0679,-0.0679,-0.0679,-0.0666,-0.0666,-0.0665,0,0,0,0,0,0,0,0,0,0,0,0,0,-0.0652,-0.0648,-0.0653,-0.0663,-0.0664,-0.0662,-0.0662,-0.0662,-0.0678,-0.0679,-0.0679,-0.068,-0.0667,-0.0666,-0.0665,-0.0646,0,0,-0.0661,-0.0661,0,0,0,0,0,0,0,0,-0.0652,-0.0652,-0.0661,-0.0662,-0.0664,-0.067,-0.0655,-0.0656,-0.0678,-0.0672,-0.0679,-0.068,-0.0666,-0.0665,-0.0664,-0.0646,-0.0645,-0.0661,-0.0661,-0.066,-0.066,0,0,0,0,0,0,0,-0.0651,-0.0652,-0.0655,-0.0662,-0.0663,-0.0667,-0.0668,-0.0656,-0.0664,-0.0672,-0.0674,-0.0676,-0.0666,-0.0665,-0.0664,-0.0645,-0.0661,-0.066,-0.066,-0.0659,-0.0623,-0.0623,0,0,0,0,0,0,-0.0651,-0.0651,-0.0655,-0.0656,-0.066,-0.0666,-0.0668,-0.0667,-0.0665,-0.0666,-0.0676,-0.0677,-0.0667,-0.0665,-0.0663,-0.0641,-0.066,-0.0659,-0.0659,-0.0624,-0.0623,-0.0623,0,0,0,0,0,0,-0.0651,-0.0652,-0.0655,-0.0655,-0.0656,-0.0666,-0.0665,-0.0667,-0.0667,-0.0668,-0.0668,-0.0674,-0.0667,-0.0665,-0.0651,-0.0641,-0.0659,-0.0658,-0.0624,-0.0624,-0.0623,-0.0597,0,0,0,0,0,0,-0.0651,-0.0651,-0.0647,-0.0655,-0.0656,-0.0649,-0.0664,-0.0666,-0.0668,-0.0669,-0.0666,-0.0666,-0.0667,-0.0653,-0.065,-0.064,-0.0657,-0.0624,-0.0624,-0.0623,-0.0598,-0.0596,-0.0593,0,0,0,0,0,-0.0651,-0.064,-0.0647,-0.0647,-0.0651,-0.0649,-0.0649,-0.0658,-0.0667,-0.0662,-0.0662,-0.0666,-0.0648,-0.0651,-0.0648,-0.0638,-0.0625,-0.0624,-0.0623,-0.0599,-0.0596,-0.0594,0,0,0,0,0,0,-0.0632,-0.0641,-0.0649,-0.064,-0.0644,-0.0652,-0.0646,-0.0655,-0.0651,-0.0652,-0.0656,-0.0655,-0.0643,-0.0642,-0.0647,-0.0627,-0.0639,-0.0637,-0.0622,-0.0619,-0.0616,-0.0611,-0.0656,0,0,0,0,0,-0.0627,-0.0622,-0.0633,-0.0625,-0.0627,-0.0637,-0.0637,-0.0643,-0.0644,-0.0643,-0.0643,-0.0641,-0.0636,-0.063,-0.0626,-0.0608,-0.0621,-0.0601,-0.0599,-0.0597,-0.0591,-0.0604,-0.0603,-0.0621,-0.0621,-0.0621,0,0,-0.0617,-0.0621,-0.0619,-0.0621,-0.0624,-0.0617,-0.0637,-0.0634,-0.0626,-0.064,-0.0625,-0.0631,-0.0631,-0.0616,-0.061,-0.0614,-0.0601,-0.0596,-0.0594,-0.059,-0.0604,-0.0602,-0.06,-0.062,-0.062,-0.062,0,0,-0.0593,-0.0599,-0.0588,-0.059,-0.0594,-0.06,-0.0598,-0.0605,-0.0606,-0.0595,-0.0607,-0.0606,-0.0593,-0.0594,-0.0592,-0.0572,-0.059,-0.0573,-0.0551,-0.0564,-0.0562,-0.0561,-0.0584,-0.0585,-0.0569,-0.0569,-0.0569,0,-0.058,-0.0569,-0.0583,-0.0573,-0.0569,-0.059,-0.0575,-0.0577,-0.0578,-0.0574,-0.0586,-0.0579,-0.0582,-0.0567,-0.0565,-0.0566,-0.0581,-0.0561,-0.0561,-0.056,-0.0559,-0.0582,-0.0584,-0.0567,-0.0567,-0.0568,-0.0568,0,-0.055,-0.0541,-0.0533,-0.0528,-0.0526,-0.0516,-0.0525,-0.052,-0.0528,-0.0533,-0.0525,-0.0535,-0.0532,-0.0536,-0.0543,-0.0537,-0.0553,-0.0559,-0.0568,-0.0556,-0.0581,-0.0583,-0.0565,-0.0566,-0.0566,-0.0567,0,0,-0.0517,-0.0513,-0.0509,-0.0498,-0.0501,-0.0493,-0.0482,-0.0474,-0.0461,-0.0474,-0.0461,-0.0467,-0.0483,-0.0483,-0.0497,-0.0509,-0.0524,-0.053,-0.0531,-0.0552,-0.0561,-0.0604,-0.0611,-0.0532,-0.0532,-0.0532,-0.0583,0,-0.0487,-0.0459,-0.0466,-0.0435,-0.042,-0.0434,-0.0418,-0.0416,-0.042,-0.0413,-0.0435,-0.043,-0.0459,-0.0459,-0.0476,-0.0509,-0.0527,-0.051,-0.0569,-0.0571,-0.0611,-0.0614,-0.0462,-0.0497,-0.0586,-0.0586,-0.0586,0,-0.0451,-0.0438,-0.0405,-0.0385,-0.0379,-0.0364,-0.0344,-0.0333,-0.0336,-0.034,-0.0351,-0.0374,-0.0392,-0.0421,-0.0475,-0.0464,-0.0509,-0.0542,-0.0545,-0.0594,-0.0619,-0.0522,-0.0498,-0.059,-0.059,-0.0589,-0.0589,0,-0.0414,-0.0391,-0.0363,-0.0357,-0.034,-0.0323,-0.0314,-0.0308,-0.029,-0.0298,-0.029,-0.0324,-0.0337,-0.0394,-0.047,-0.0472,-0.0538,-0.0548,-0.0632,-0.0636,-0.0523,-0.0517,-0.059,-0.059,-0.059,-0.059,-0.059,0,-0.0375,-0.0348,-0.0342,-0.0324,-0.0281,-0.0286,-0.0245,-0.024,-0.0231,-0.0204,-0.0251,-0.0243,-0.0331,-0.0383,-0.0455,-0.0554,-0.053,-0.0632,-0.0652,-0.0512,-0.0505,-0.0595,-0.0595,-0.0592,-0.0591,-0.0591,-0.0591,0,-0.033,-0.033,-0.0292,-0.0272,-0.0261,-0.0229,-0.0198,-0.0169,-0.017,-0.0139,-0.0141,-0.0183,-0.0256,-0.0355,-0.0453,-0.0535,-0.0624,-0.0665,-0.0508,-0.051,-0.0718,-0.0716,-0.0764,-0.0766,-0.0768,-0.0769,-0.077,0,-0.0301,-0.028,-0.025,-0.0226,-0.0212,-0.0174,-0.0144,-0.0135,-0.0105,-0.0099,-0.0078,-0.0143,-0.0165,-0.0339,-0.0428,-0.0557,-0.0657,-0.0606,-0.0591,-0.0721,-0.0736,-0.0731,-0.0727,-0.0424,-0.0422,-0.0421,-0.042,0,-0.0244,-0.0237,-0.0208,-0.0165,-0.0129,-0.0089,-0.005,-0.0018,-0.0006,0.0028,0.0036,0.0018,-0.0098,-0.0159,-0.0354,-0.0439,-0.0574,-0.0587,-0.0733,-0.0425,-0.0411,-0.0422,-0.0427,-0.0407,-0.0408,-0.0409,-0.041,-0.041,-0.0195,-0.0167,-0.0137,-0.0092,-0.0055,-0.0007,0.0028,0.0128,0.0196,0.0302,0.0205,0.0242,0.0097,-0.0042,-0.0229,-0.0435,-0.0457,-0.0553,-0.0552,-0.0554,-0.0527,-0.0519,-0.053,-0.0532,-0.0534,-0.0535,-0.0536,0,-0.0106,-0.0111,-0.0069,-0.002,0.0056,0.0031,0.009,0.0199,0.0351,0.0447,0.052,0.0436,0.0346,0.01,-0.011,-0.0306,-0.0266,-0.045,-0.0329,-0.0338,-0.0347,-0.0307,-0.0253,-0.0254,-0.0254,-0.0255,0,0,-0.0065,-0.0002,0.0012,0.0104,0.011,0.0219,0.0252,0.0434,0.0552,0.0723,0.0756,0.0798,0.0455,0.033,0.0096,-0.0087,-0.0184,-0.0126,-0.0312,-0.0143,-0.0151,-0.0346,-0.0288,0,0,0,0,0]}],[{"header":{"parameterUnit":"m.s-1","parameterCategory":2,"la1":30.2991,"la2":30.254,"lo1":-89.0895,"lo2":-89.0444,"dy":0.0017,"dx":0.0017,"nx":28,"ny":28,"refTime":"2024-02-18T03:00:00:Z","depth":"4","parameterNumber":2,"parameterNumberName":"U-component_of_CURRENTS"},"data":[0,0,0,0,0,0,0,0,0,0,0,0,0,0,0,0,0,0,0,0,0,0,0,0,0,0,0,0,0,0,0,0,0,0,0,0,0,0,0,0,0,0,0,0,0,0,0,0,0,0,0,0,0,0,0,0,0,0,0.0983,0.0983,0,0.1022,0.1022,0.1023,0.1049,0.1049,0.105,0.105,0.1084,0.1085,0.1086,0,0,0,0,0,0,0,0,0,0,0,0,0,0.0928,0.0929,0.0983,0.0983,0.0984,0.1022,0.1022,0.1023,0.1049,0.1049,0.105,0.105,0.1084,0.1085,0.1086,0,0,0,0,0,0,0,0,0,0,0,0,0,0.0957,0.0929,0.0983,0.1003,0.1005,0.1022,0.1022,0.1023,0.1049,0.1049,0.105,0.105,0.1084,0.1085,0.1086,0.1082,0,0,0.1089,0.1089,0,0,0,0,0,0,0,0,0.0955,0.0959,0.0999,0.1001,0.1004,0.1032,0.1016,0.1043,0.1049,0.1031,0.105,0.1051,0.1067,0.1069,0.1074,0.1084,0.1085,0.1089,0.1089,0.109,0.109,0,0,0,0,0,0,0,0.0953,0.0957,0.0997,0.1,0.1003,0.1009,0.1013,0.1021,0.1045,0.1032,0.1035,0.1041,0.1068,0.1073,0.1075,0.1086,0.1089,0.1089,0.109,0.109,0.1152,0.1153,0,0,0,0,0,0,0.0951,0.0955,0.0996,0.0998,0.0982,0.101,0.1015,0.1022,0.1045,0.1049,0.1041,0.1042,0.1071,0.1074,0.1076,0.1129,0.109,0.109,0.1091,0.1151,0.1152,0.1153,0,0,0,0,0,0,0.0949,0.0954,0.0994,0.0979,0.0984,0.101,0.1018,0.1022,0.1049,0.1051,0.1055,0.1066,0.1072,0.1075,0.1104,0.1128,0.1091,0.1092,0.115,0.1151,0.1153,0.1198,0,0,0,0,0,0,0.0948,0.0953,0.0969,0.0978,0.0985,0.1019,0.1018,0.1023,0.1051,0.1054,0.1074,0.1076,0.1072,0.1103,0.1105,0.1129,0.1092,0.1148,0.115,0.1152,0.1195,0.1201,0.1206,0,0,0,0,0,0.0946,0.0962,0.097,0.0975,0.1002,0.102,0.1024,0.1042,0.1052,0.1068,0.1084,0.1077,0.1117,0.1105,0.1107,0.1131,0.1147,0.115,0.1152,0.1193,0.12,0.1206,0,0,0,0,0,0,0.0949,0.0967,0.0975,0.0998,0.1015,0.1025,0.1046,0.1056,0.108,0.1091,0.1091,0.1094,0.1129,0.1124,0.111,0.1155,0.1131,0.1134,0.1161,0.1168,0.1173,0.1176,0.1093,0,0,0,0,0,0.0956,0.0975,0.0989,0.101,0.1021,0.1038,0.1052,0.1064,0.1082,0.1094,0.1107,0.1122,0.1137,0.1149,0.116,0.1184,0.1183,0.1201,0.1206,0.1211,0.1215,0.1233,0.124,0.1161,0.1161,0.1161,0,0,0.0963,0.0977,0.0989,0.1013,0.1029,0.1048,0.1048,0.1077,0.1098,0.1093,0.1133,0.1144,0.1149,0.1178,0.1192,0.1179,0.1235,0.1214,0.1218,0.1219,0.1236,0.1243,0.125,0.1163,0.1163,0.1162,0,0,0.098,0.1001,0.102,0.1036,0.1065,0.1073,0.1087,0.111,0.1129,0.1161,0.1166,0.1193,0.1215,0.1224,0.1229,0.1271,0.1264,0.1277,0.1306,0.1324,0.1331,0.1336,0.1352,0.1359,0.1279,0.1279,0.1279,0,0.099,0.1013,0.1029,0.105,0.1068,0.1087,0.1109,0.1128,0.116,0.1179,0.1182,0.1229,0.1235,0.1268,0.1284,0.1283,0.1292,0.1281,0.1331,0.1337,0.1342,0.1356,0.1363,0.1281,0.1281,0.1281,0.128,0,0.1011,0.1039,0.1053,0.1084,0.1105,0.113,0.1153,0.1183,0.1208,0.1224,0.1271,0.1283,0.1311,0.1318,0.1315,0.1357,0.1352,0.1337,0.1313,0.1352,0.1365,0.1372,0.1285,0.1284,0.1283,0.1282,0,0,0.1009,0.1058,0.1066,0.1088,0.1127,0.1144,0.1184,0.1221,0.1254,0.1286,0.1327,0.1357,0.137,0.1378,0.1382,0.1397,0.1443,0.1388,0.1387,0.1402,0.1488,0.1397,0.1395,0.1439,0.144,0.1441,0.1485,0,0.1023,0.1065,0.1087,0.1132,0.1154,0.1186,0.122,0.1258,0.1292,0.1336,0.1359,0.1399,0.139,0.1415,0.143,0.1442,0.1461,0.1433,0.1449,0.145,0.1363,0.1399,0.1445,0.149,0.1491,0.1492,0.1493,0,0.103,0.1061,0.1105,0.1158,0.1172,0.1205,0.1267,0.13,0.1358,0.1386,0.1429,0.1448,0.149,0.1472,0.1512,0.1498,0.1501,0.1502,0.1503,0.1405,0.137,0.1441,0.1504,0.1503,0.1502,0.1501,0.1501,0,0.1012,0.1071,0.111,0.1128,0.1189,0.1225,0.1264,0.1322,0.1355,0.1427,0.1459,0.1504,0.1537,0.1551,0.1558,0.1545,0.1591,0.1569,0.1491,0.1485,0.1533,0.1526,0.1596,0.1596,0.1596,0.1596,0.1596,0,0.1004,0.1038,0.1112,0.1133,0.1185,0.1231,0.129,0.1334,0.1399,0.1434,0.1489,0.1516,0.156,0.1586,0.1582,0.1555,0.1613,0.1502,0.149,0.1552,0.1547,0.1538,0.153,0.1597,0.1597,0.1597,0.1596,0,0.0971,0.102,0.1069,0.1149,0.1177,0.1217,0.1298,0.1333,0.1404,0.1454,0.148,0.1544,0.1574,0.1602,0.1627,0.1577,0.1566,0.1542,0.1618,0.1608,0.1444,0.1439,0.1458,0.1455,0.1453,0.1451,0.1449,0,0.0954,0.0979,0.1073,0.1103,0.1145,0.121,0.1247,0.1327,0.1357,0.1451,0.1462,0.1528,0.1557,0.1518,0.1558,0.1552,0.1529,0.1516,0.1467,0.1444,0.1431,0.1429,0.1427,0.1445,0.1445,0.1444,0.1443,0,0.0921,0.0967,0.1007,0.1072,0.1123,0.1166,0.1227,0.1239,0.1321,0.1399,0.1403,0.1414,0.1446,0.1455,0.1465,0.1455,0.1519,0.1491,0.1495,0.1448,0.1429,0.1417,0.1418,0.1435,0.1436,0.1437,0.1438,0,0.0896,0.0916,0.0978,0.1024,0.1082,0.11,0.1141,0.1168,0.1204,0.1298,0.1298,0.1362,0.1428,0.1406,0.1413,0.14,0.1373,0.1318,0.1331,0.1341,0.1281,0.1237,0.1179,0,0,0,0,0,0.0862,0.0877,0.0921,0.0963,0.1014,0.1048,0.1113,0.1152,0.123,0.1198,0.1241,0.126,0.1266,0.1301,0.1263,0.1373,0.1388,0.1324,0.1334,0.1389,0.1399,0.1338,0,0,0,0,0,0,0.0837,0.0878,0.0899,0.09,0.0913,0.0959,0.0997,0.1052,0.1034,0.1115,0.1122,0.1185,0.121,0.1271,0.1238,0.125,0.1231,0.1368,0.1365,0.1383,0.1392,0.14,0.1341,0,0,0,0,0]},{"header":{"parameterUnit":"m.s-1","parameterCategory":2,"la1":30.2991,"la2":30.254,"lo1":-89.0895,"lo2":-89.0444,"dy":0.0017,"dx":0.0017,"nx":28,"ny":28,"refTime":"2024-02-18T03:00:00:Z","depth":"4","parameterNumber":3,"parameterNumberName":"V-component_of_CURRENTS"},"data":[0,0,0,0,0,0,0,0,0,0,0,0,0,0,0,0,0,0,0,0,0,0,0,0,0,0,0,0,0,0,0,0,0,0,0,0,0,0,0,0,0,0,0,0,0,0,0,0,0,0,0,0,0,0,0,0,0,0,0.0277,0.0276,0,0.0239,0.0239,0.0238,0.0228,0.0228,0.0228,0.0228,0.0216,0.0216,0.0215,0,0,0,0,0,0,0,0,0,0,0,0,0,0.0319,0.0318,0.0277,0.0276,0.0276,0.0239,0.0239,0.0238,0.0228,0.0228,0.0228,0.0229,0.0216,0.0216,0.0215,0,0,0,0,0,0,0,0,0,0,0,0,0,0.0293,0.0318,0.0277,0.0266,0.0265,0.0239,0.0239,0.0238,0.0228,0.0228,0.0228,0.0229,0.0216,0.0216,0.0215,0.0204,0,0,0.0212,0.0212,0,0,0,0,0,0,0,0,0.0295,0.0292,0.0268,0.0267,0.0265,0.0238,0.0249,0.0228,0.0228,0.0242,0.0228,0.0229,0.0226,0.0224,0.0216,0.0204,0.0203,0.0212,0.0212,0.0212,0.0211,0,0,0,0,0,0,0,0.0296,0.0293,0.0262,0.0267,0.0266,0.0256,0.0253,0.0245,0.0233,0.0241,0.024,0.0235,0.0225,0.0217,0.0216,0.0203,0.0212,0.0212,0.0211,0.0211,0.0183,0.0183,0,0,0,0,0,0,0.0301,0.0295,0.0263,0.0261,0.0281,0.0255,0.0252,0.0247,0.0233,0.023,0.0235,0.0235,0.0218,0.0217,0.0215,0.0208,0.0212,0.0211,0.021,0.0183,0.0183,0.0183,0,0,0,0,0,0,0.0302,0.0299,0.0265,0.0277,0.0272,0.0254,0.0249,0.0246,0.0238,0.0228,0.0227,0.0231,0.0218,0.0216,0.0208,0.0207,0.0211,0.021,0.0184,0.0183,0.0183,0.0189,0,0,0,0,0,0,0.0304,0.0299,0.0298,0.0277,0.0271,0.0253,0.0248,0.0245,0.0235,0.0235,0.0224,0.0223,0.0218,0.021,0.0208,0.0206,0.0209,0.0184,0.0183,0.0183,0.0189,0.0189,0.0189,0,0,0,0,0,0.0305,0.0302,0.0298,0.0295,0.027,0.0253,0.0249,0.0237,0.0235,0.0232,0.0224,0.0223,0.0205,0.0209,0.0206,0.0205,0.0184,0.0184,0.0183,0.019,0.0189,0.0189,0,0,0,0,0,0,0.0318,0.03,0.0296,0.0287,0.0273,0.0251,0.0247,0.0237,0.0227,0.0228,0.0219,0.0217,0.0209,0.0205,0.0209,0.0195,0.0195,0.0193,0.02,0.02,0.02,0.0209,0.0209,0,0,0,0,0,0.0321,0.0316,0.0296,0.0289,0.0283,0.0265,0.0257,0.0248,0.0235,0.0231,0.0221,0.0213,0.0204,0.0201,0.0192,0.0184,0.0175,0.0181,0.0181,0.0181,0.0186,0.0166,0.0164,0.0181,0.0181,0.0181,0,0,0.0325,0.0314,0.0311,0.0292,0.0281,0.0275,0.0261,0.0249,0.0246,0.0232,0.0224,0.0211,0.0201,0.0192,0.0188,0.0189,0.017,0.018,0.018,0.0186,0.0165,0.0163,0.0162,0.018,0.018,0.018,0,0,0.033,0.032,0.0318,0.0308,0.0293,0.0281,0.0279,0.0257,0.025,0.0238,0.0227,0.0213,0.0199,0.019,0.0185,0.0177,0.0168,0.0174,0.0182,0.0162,0.016,0.0159,0.0141,0.0138,0.0176,0.0176,0.0176,0,0.0337,0.0332,0.0315,0.0312,0.0307,0.0286,0.0286,0.0273,0.0252,0.0248,0.0239,0.0211,0.0199,0.019,0.0185,0.0178,0.0165,0.0185,0.0162,0.016,0.0159,0.0141,0.0138,0.0176,0.0176,0.0176,0.0176,0,0.0341,0.0339,0.0337,0.0329,0.0321,0.0316,0.0299,0.0291,0.0277,0.0264,0.0248,0.0223,0.0209,0.0198,0.0189,0.0174,0.0168,0.0163,0.0164,0.0158,0.0139,0.0136,0.0176,0.0176,0.0176,0.0176,0,0,0.0354,0.0343,0.0344,0.0348,0.0331,0.0327,0.0321,0.031,0.0313,0.0282,0.0277,0.0247,0.023,0.0222,0.0204,0.0183,0.0155,0.0169,0.0168,0.0155,0.0111,0.011,0.0106,0.0145,0.0144,0.0144,0.01,0,0.0365,0.0369,0.0358,0.0366,0.0368,0.0352,0.0351,0.0339,0.0324,0.0314,0.0281,0.0268,0.0241,0.0233,0.0206,0.0171,0.0147,0.0168,0.0117,0.0115,0.0118,0.0102,0.0142,0.0098,0.0097,0.0096,0.0096,0,0.0376,0.0378,0.0389,0.0393,0.0393,0.0395,0.0396,0.0391,0.0371,0.0359,0.0334,0.0306,0.0271,0.0247,0.0182,0.0197,0.0155,0.0123,0.0121,0.0117,0.0108,0.0106,0.0089,0.009,0.009,0.0091,0.0091,0,0.04,0.0402,0.0416,0.0416,0.0414,0.0421,0.042,0.0408,0.0415,0.0388,0.0386,0.0336,0.0316,0.0254,0.0184,0.0182,0.0112,0.0101,0.006,0.006,0.0071,0.0073,0.0052,0.0052,0.0053,0.0053,0.0053,0,0.0417,0.043,0.0432,0.0441,0.0463,0.045,0.0471,0.0463,0.0458,0.0469,0.0414,0.0411,0.0316,0.0264,0.0194,0.0119,0.0118,0.006,0.0047,0.0074,0.0077,0.0069,0.0071,0.0051,0.0051,0.0052,0.0052,0,0.0442,0.0441,0.0463,0.0471,0.0477,0.0495,0.0513,0.0528,0.0515,0.0527,0.052,0.0467,0.0399,0.0304,0.0205,0.0141,0.0063,0.0036,0.0074,0.0065,0.002,0.0024,-0.0016,-0.0016,-0.0017,-0.0017,-0.0017,0,0.0452,0.0466,0.0492,0.0509,0.0516,0.054,0.056,0.056,0.0577,0.0566,0.0576,0.0515,0.0467,0.0328,0.0224,0.0086,0.0065,0.0015,0.001,0.0021,0.0013,0.0017,0.002,-0.0018,-0.0018,-0.0018,-0.0018,0,0.0476,0.049,0.0509,0.0545,0.0574,0.0603,0.063,0.0647,0.0647,0.0641,0.0619,0.0537,0.0461,0.034,0.0229,0.0132,0.0041,0.0011,0.0011,0.0006,0.0018,0.0011,0.0015,-0.0019,-0.0019,-0.0019,-0.0019,0,0.0499,0.0518,0.0546,0.0576,0.0616,0.065,0.066,0.0674,0.0686,0.0669,0.0665,0.0572,0.0516,0.0365,0.0269,0.0165,0.0135,0.009,0.0085,0.0085,0.0123,0.0154,0.0147,0,0,0,0,0,0.0515,0.0536,0.0569,0.0601,0.0642,0.0665,0.07,0.0705,0.071,0.07,0.068,0.0607,0.0456,0.0395,0.0292,0.0259,0.0116,0.0133,0.0061,-0.0026,-0.0025,0.0002,0,0,0,0,0,0,0.0526,0.0563,0.0572,0.0618,0.0643,0.069,0.0715,0.0717,0.0707,0.0695,0.0622,0.0574,0.0435,0.0518,0.029,0.0259,0.0195,0.0064,0.0061,-0.0027,-0.0026,-0.0025,0.0004,0,0,0,0,0]}]]